Regional Weather Roundup
Issued by NWS

Home | Current Version | Previous Version | Text Only | Print | Product List | Glossary Off
Versions: 1 2 3 4 5 6 7 8 9 10 11 12 13 14 15 16 17 18 19 20 21 22 23 24 25 26 27 28 29 30 31 32 33 34 35 36 37 38 39 40 41 42 43 44 45 46 47 48 49 50

000
ASUS43 KLSX 230207
RWRMO

WEATHER SUMMARY FOR MISSOURI
NATIONAL WEATHER SERVICE SPRINGFIELD MO
900 PM CDT MON SEP 22 2014

NOTE: "FAIR" INDICATES FEW OR NO CLOUDS BELOW 12,000 FEET WITH NO
       SIGNIFICANT WEATHER AND/OR OBSTRUCTIONS TO VISIBILITY.
       CURRENT SKY AND/OR WEATHER CONDITIONS ARE NOT AVAILABLE FOR
       CHILLICOTHE AND FARMINGTON.

MOZ001>031-035>038-043-044-053-054-230300-
...NORTHERN AND WESTERN MISSOURI...

CITY           SKY/WX    TMP DP  RH WIND       PRES   REMARKS
KANSAS CTY INT MOCLDY    63  52  67 SE9       30.23R
KANSAS C DTWN  PTCLDY    68  52  56 SE3       30.22R
LEE`S SUMMIT   MOCLDY    65  51  60 SE5       30.24R
ST JOSEPH      MOCLDY    61  54  77 S6        30.22R
CHILLICOTHE      N/A     57  54  89 CALM      30.26R
KIRKSVILLE     CLEAR     53  32  44 CALM      30.27R

$$
MOZ066>068-077>081-088>096-101>105-230300-
...SOUTHWEST MISSOURI...

CITY           SKY/WX    TMP DP  RH WIND       PRES   REMARKS
SPRINGFIELD    PTCLDY    60  50  69 NE6       30.24R
JOPLIN         PTCLDY    63  55  75 E6        30.23R

$$
MOZ032>034-039>042-045>050-055>058-069>072-230300-
...CENTRAL MISSOURI...

CITY           SKY/WX    TMP DP  RH WIND       PRES   REMARKS
COLUMBIA       CLEAR     60  49  66 E6        30.26R
JEFFERSON CITY CLEAR     59  51  75 CALM      30.25R
ROLLA          CLEAR     55  47  74 CALM      30.25R
SEDALIA        PTCLDY    62  51  67 E5        30.25R
WHITEMAN AFB   CLEAR     59  52  76 SE2       30.24R
OSAGE BEACH    CLEAR     55  48  76 NE3       30.25R

$$
MOZ051-052-059>065-230300-
...EAST CENTRAL MISSOURI...

CITY           SKY/WX    TMP DP  RH WIND       PRES   REMARKS
ST LOUIS INTL  PTCLDY    63  49  60 CALM      30.26R
SPIRIT OF STL  CLEAR     56  52  86 CALM      30.25R
ST CHARLES     CLEAR     57  52  83 CALM      30.25R

$$
MOZ072>076-082>087-097>100-106>115-230300-
...SOUTH CENTRAL AND SOUTHEAST MISSOURI...

CITY           SKY/WX    TMP DP  RH WIND       PRES   REMARKS
CAPE GIRARDEAU CLEAR     56  50  80 CALM      30.23R
FARMINGTON     CLEAR     55  50  82 CALM      30.27R
POPLAR BLUFF   CLEAR     56  51  84 N3        30.22R
WEST PLAINS    CLEAR     57  51  80 CALM      30.25R

$$



USA.gov is the U.S. government's official web portal to all federal, state and local government web resources and services.